sat.trackr.live / text

‹ back to catalog

STARLINK-2714

NORAD 48603 · 2021-041BC

PAYLOAD ACTIVE UNKNOWN

§ Identity

Operator
Country
US
Launch date
2021-05-15
Launch site
AFETR
Launch vehicle
Mass (kg)
RCS (m²)

Purposes: comms

External: N2YO · Heavens-Above · Gunter

§ Orbital elements

Epoch: 2026-05-25T05:29:02.248800Z

Period
94.16 min
Inclination
53.1578°
Eccentricity
0.0001376
Mean motion
15.29387373 rev/d
Perigee alt
476.7 km
Apogee alt
478.6 km
Semi-major
6,855.8 km
B*
1.6280e-4
RAAN
118.4751°
Arg perigee
97.0485°
Mean anomaly
263.0672°
Rev number
27,842

§ Raw data

STARLINK-27141 48603U 21041BC  26145.22849825  .00004349  00000+0  16280-3 0  99962 48603  53.1578 118.4751 0001376  97.0485 263.0672 15.29387373278426

JSON: /api/v1/satellites/48603 · /tle

For live sub-satellite position, see the globe view (requires WebGL).

§ Visibility from observer

Set your observer location to see the next 7 days of passes ≥ 10°. The values pass through the URL so the page stays shareable.

No JS? Fill the form by hand. The geolocation button needs JavaScript.